Time,TemperatureF,DewpointF,PressureIn,WindDirection,WindDirectionDegrees,WindSpeedMPH,WindSpeedGustMPH,Humidity,HourlyPrecipIn,Conditions,Clouds,dailyrainin,SoftwareType,DateUTC
2013-09-26 00:01:00,57.4,54.2,29.93,ESE,108,0.0,0.0,89,0.00,,,0.00,Wunderground PWS Mod,2013-09-26 04:01:00,
2013-09-26 00:02:00,57.4,54.2,29.93,ESE,107,0.0,0.0,89,0.00,,,0.00,Wunderground PWS Mod,2013-09-26 04:02:00,
2013-09-26 00:03:00,57.4,54.2,29.93,ESE,107,0.0,0.0,89,0.00,,,0.00,Wunderground PWS Mod,2013-09-26 04:03:00,
2013-09-26 00:04:00,57.4,54.2,29.93,ESE,107,0.0,0.0,89,0.00,,,0.00,Wunderground PWS Mod,2013-09-26 04:04:00,
2013-09-26 00:10:00,57.4,54.2,29.93,ESE,108,0.0,0.0,89,0.00,,,0.00,Wunderground PWS Mod,2013-09-26 04:10:00,
2013-09-26 00:13:00,57.4,54.2,29.93,ESE,108,0.0,0.0,89,0.00,,,0.00,Wunderground PWS Mod,2013-09-26 04:13:00,
2013-09-26 00:14:00,57.3,53.8,29.93,N/A,-737280,0.0,0.0,88,0.00,,,0.00,Wunderground PWS Mod,2013-09-26 04:14:00,
2013-09-26 00:18:00,57.3,54.1,29.93,ESE,107,0.0,0.0,89,0.00,,,0.00,Wunderground PWS Mod,2013-09-26 04:18:00,
2013-09-26 00:24:00,57.3,54.1,29.93,SE,126,0.0,0.0,89,0.00,,,0.00,Wunderground PWS Mod,2013-09-26 04:24:00,
2013-09-26 00:30:00,57.3,53.8,29.93,SE,134,0.0,0.0,88,0.00,,,0.00,Wunderground PWS Mod,2013-09-26 04:30:00,
2013-09-26 00:35:00,57.3,53.8,29.93,SE,134,0.0,0.0,88,0.00,,,0.00,Wunderground PWS Mod,2013-09-26 04:35:00,
2013-09-26 00:40:00,57.2,53.7,29.93,SE,134,0.0,0.0,88,0.00,,,0.00,Wunderground PWS Mod,2013-09-26 04:40:00,
2013-09-26 00:46:00,57.2,53.7,29.94,SE,134,0.0,0.0,88,0.00,,,0.00,Wunderground PWS Mod,2013-09-26 04:46:00,
2013-09-26 00:51:00,57.1,53.6,29.93,SE,134,0.0,0.0,88,0.00,,,0.00,Wunderground PWS Mod,2013-09-26 04:51:00,
2013-09-26 00:57:00,57.1,53.6,29.94,SE,134,0.0,0.0,88,0.00,,,0.00,Wunderground PWS Mod,2013-09-26 04:57:00,
2013-09-26 01:02:00,57.1,53.6,29.94,SE,134,0.0,0.0,88,0.00,,,0.00,Wunderground PWS Mod,2013-09-26 05:02:00,
2013-09-26 01:08:00,56.9,53.4,29.94,SE,134,0.0,0.0,88,0.00,,,0.00,Wunderground PWS Mod,2013-09-26 05:08:00,
2013-09-26 01:14:00,56.9,53.4,29.94,SE,134,0.0,0.0,88,0.00,,,0.00,Wunderground PWS Mod,2013-09-26 05:14:00,
2013-09-26 01:20:00,56.8,53.6,29.94,SE,134,0.0,0.0,89,0.00,,,0.00,Wunderground PWS Mod,2013-09-26 05:20:00,
2013-09-26 01:26:00,56.7,53.2,29.94,SE,134,0.0,0.0,88,0.00,,,0.00,Wunderground PWS Mod,2013-09-26 05:26:00,
2013-09-26 01:32:00,56.6,52.8,29.94,SE,134,0.0,0.0,87,0.00,,,0.00,Wunderground PWS Mod,2013-09-26 05:32:00,
2013-09-26 01:37:00,56.6,52.8,29.94,SE,134,0.0,0.0,87,0.00,,,0.00,Wunderground PWS Mod,2013-09-26 05:37:00,
2013-09-26 01:42:00,56.5,53.0,29.94,SE,134,0.0,0.0,88,0.00,,,0.00,Wunderground PWS Mod,2013-09-26 05:42:00,
2013-09-26 01:48:00,56.4,52.9,29.94,SE,134,0.0,0.0,88,0.00,,,0.00,Wunderground PWS Mod,2013-09-26 05:48:00,
2013-09-26 01:53:00,56.4,52.9,29.94,SE,134,0.0,0.0,88,0.00,,,0.00,Wunderground PWS Mod,2013-09-26 05:53:00,
2013-09-26 01:58:00,56.3,53.1,29.94,SE,134,0.0,0.0,89,0.00,,,0.00,Wunderground PWS Mod,2013-09-26 05:58:00,
2013-09-26 02:04:00,56.2,53.0,29.94,SE,134,0.0,0.0,89,0.00,,,0.00,Wunderground PWS Mod,2013-09-26 06:04:00,
2013-09-26 02:10:00,56.0,52.8,29.94,SE,134,0.0,0.0,89,0.00,,,0.00,Wunderground PWS Mod,2013-09-26 06:10:00,
2013-09-26 02:15:00,56.0,52.8,29.94,SE,134,0.0,0.0,89,0.00,,,0.00,Wunderground PWS Mod,2013-09-26 06:15:00,
2013-09-26 02:21:00,55.9,52.4,29.94,SE,134,0.0,0.0,88,0.00,,,0.00,Wunderground PWS Mod,2013-09-26 06:21:00,
2013-09-26 02:26:00,55.9,52.7,29.94,SE,134,0.0,0.0,89,0.00,,,0.00,Wunderground PWS Mod,2013-09-26 06:26:00,
2013-09-26 02:32:00,55.8,52.6,29.94,SE,134,0.0,0.0,89,0.00,,,0.00,Wunderground PWS Mod,2013-09-26 06:32:00,
2013-09-26 02:37:00,55.7,52.5,29.94,SE,134,0.0,0.0,89,0.00,,,0.00,Wunderground PWS Mod,2013-09-26 06:37:00,
2013-09-26 02:42:00,55.7,52.5,29.94,SE,134,0.0,0.0,89,0.00,,,0.00,Wunderground PWS Mod,2013-09-26 06:42:00,
2013-09-26 02:48:00,55.6,52.7,29.94,SE,134,0.0,0.0,90,0.00,,,0.00,Wunderground PWS Mod,2013-09-26 06:48:00,
2013-09-26 02:53:00,55.6,52.4,29.94,SE,134,0.0,0.0,89,0.00,,,0.00,Wunderground PWS Mod,2013-09-26 06:53:00,
2013-09-26 02:59:00,55.5,52.3,29.93,SE,134,0.0,0.0,89,0.00,,,0.00,Wunderground PWS Mod,2013-09-26 06:59:00,
2013-09-26 03:04:00,55.4,52.5,29.93,SE,134,0.0,0.0,90,0.00,,,0.00,Wunderground PWS Mod,2013-09-26 07:04:00,
2013-09-26 03:10:00,55.4,52.2,29.94,SE,134,0.0,0.0,89,0.00,,,0.00,Wunderground PWS Mod,2013-09-26 07:10:00,
2013-09-26 03:15:00,55.3,52.1,29.94,SE,134,0.0,0.0,89,0.00,,,0.00,Wunderground PWS Mod,2013-09-26 07:15:00,
2013-09-26 03:21:00,55.3,52.4,29.94,SE,134,0.0,0.0,90,0.00,,,0.00,Wunderground PWS Mod,2013-09-26 07:21:00,
2013-09-26 03:26:00,55.2,52.3,29.94,SE,134,0.0,0.0,90,0.00,,,0.00,Wunderground PWS Mod,2013-09-26 07:26:00,
2013-09-26 03:31:00,55.1,52.5,29.94,SE,134,0.0,0.0,91,0.00,,,0.00,Wunderground PWS Mod,2013-09-26 07:31:00,
2013-09-26 03:36:00,55.1,52.5,29.94,SE,134,0.0,0.0,91,0.00,,,0.00,Wunderground PWS Mod,2013-09-26 07:36:00,
2013-09-26 03:42:00,55.0,52.4,29.94,SE,134,0.0,0.0,91,0.00,,,0.00,Wunderground PWS Mod,2013-09-26 07:42:00,
2013-09-26 03:47:00,54.9,52.3,29.94,SE,134,0.0,0.0,91,0.00,,,0.00,Wunderground PWS Mod,2013-09-26 07:47:00,
2013-09-26 03:52:00,54.9,52.0,29.94,SE,134,0.0,0.0,90,0.00,,,0.00,Wunderground PWS Mod,2013-09-26 07:52:00,
2013-09-26 03:57:00,54.9,52.0,29.94,SE,134,0.0,0.0,90,0.00,,,0.00,Wunderground PWS Mod,2013-09-26 07:57:00,
2013-09-26 04:03:00,54.8,51.9,29.94,SE,134,0.0,0.0,90,0.00,,,0.00,Wunderground PWS Mod,2013-09-26 08:03:00,
2013-09-26 04:09:00,54.8,51.9,29.94,SE,134,0.0,0.0,90,0.00,,,0.00,Wunderground PWS Mod,2013-09-26 08:09:00,
2013-09-26 04:14:00,54.7,51.8,29.94,SE,134,0.0,0.0,90,0.00,,,0.00,Wunderground PWS Mod,2013-09-26 08:14:00,
2013-09-26 04:20:00,54.6,51.7,29.94,SE,134,0.0,0.0,90,0.00,,,0.00,Wunderground PWS Mod,2013-09-26 08:20:00,
2013-09-26 04:25:00,54.6,51.7,29.94,SE,134,0.0,0.0,90,0.00,,,0.00,Wunderground PWS Mod,2013-09-26 08:25:00,
2013-09-26 04:31:00,54.5,51.6,29.95,SE,134,0.0,0.0,90,0.00,,,0.00,Wunderground PWS Mod,2013-09-26 08:31:00,
2013-09-26 04:36:00,54.4,51.5,29.95,SE,134,0.0,0.0,90,0.00,,,0.00,Wunderground PWS Mod,2013-09-26 08:36:00,
2013-09-26 04:42:00,54.4,51.5,29.95,SE,134,0.0,0.0,90,0.00,,,0.00,Wunderground PWS Mod,2013-09-26 08:42:00,
2013-09-26 04:47:00,54.3,51.4,29.95,SE,134,0.0,0.0,90,0.00,,,0.00,Wunderground PWS Mod,2013-09-26 08:47:00,
2013-09-26 04:52:00,54.2,51.6,29.95,SE,134,0.0,0.0,91,0.00,,,0.00,Wunderground PWS Mod,2013-09-26 08:52:00,
2013-09-26 04:57:00,54.2,51.6,29.95,SE,134,0.0,0.0,91,0.00,,,0.00,Wunderground PWS Mod,2013-09-26 08:57:00,
2013-09-26 05:02:00,54.2,51.6,29.95,SE,134,0.0,0.0,91,0.00,,,0.00,Wunderground PWS Mod,2013-09-26 09:02:00,
2013-09-26 05:07:00,54.1,51.5,29.95,SE,134,0.0,0.0,91,0.00,,,0.00,Wunderground PWS Mod,2013-09-26 09:07:00,
2013-09-26 05:13:00,54.0,51.4,29.95,SE,134,0.0,0.0,91,0.00,,,0.00,Wunderground PWS Mod,2013-09-26 09:13:00,
2013-09-26 05:19:00,53.9,51.3,29.95,SE,134,0.0,0.0,91,0.00,,,0.00,Wunderground PWS Mod,2013-09-26 09:19:00,
2013-09-26 05:25:00,53.7,51.1,29.95,ENE,69,0.0,0.0,91,0.00,,,0.00,Wunderground PWS Mod,2013-09-26 09:25:00,
2013-09-26 05:30:00,53.5,50.6,29.95,ENE,60,0.0,0.0,90,0.00,,,0.00,Wunderground PWS Mod,2013-09-26 09:30:00,
2013-09-26 05:35:00,53.3,50.4,29.95,NE,36,0.0,0.0,90,0.00,,,0.00,Wunderground PWS Mod,2013-09-26 09:35:00,
2013-09-26 05:40:00,53.2,50.6,29.95,NE,36,0.0,0.0,91,0.00,,,0.00,Wunderground PWS Mod,2013-09-26 09:40:00,
2013-09-26 05:45:00,53.0,50.4,29.95,NE,36,0.0,0.0,91,0.00,,,0.00,Wunderground PWS Mod,2013-09-26 09:45:00,
2013-09-26 05:51:00,52.8,50.5,29.95,NE,36,0.0,0.0,92,0.00,,,0.00,Wunderground PWS Mod,2013-09-26 09:51:00,
2013-09-26 05:56:00,52.7,50.4,29.95,NE,36,0.0,0.0,92,0.00,,,0.00,Wunderground PWS Mod,2013-09-26 09:56:00,
2013-09-26 06:01:00,52.5,50.2,29.96,NE,36,0.0,0.0,92,0.00,,,0.00,Wunderground PWS Mod,2013-09-26 10:01:00,
2013-09-26 06:07:00,52.3,50.0,29.96,NE,36,0.0,0.0,92,0.00,,,0.00,Wunderground PWS Mod,2013-09-26 10:07:00,
2013-09-26 06:12:00,52.2,50.2,29.96,NE,36,0.0,0.0,93,0.00,,,0.00,Wunderground PWS Mod,2013-09-26 10:12:00,
2013-09-26 06:18:00,52.1,50.1,29.96,NE,36,0.0,0.0,93,0.00,,,0.00,Wunderground PWS Mod,2013-09-26 10:18:00,
2013-09-26 06:23:00,52.1,50.1,29.96,NE,36,0.0,0.0,93,0.00,,,0.00,Wunderground PWS Mod,2013-09-26 10:23:00,
2013-09-26 06:29:00,52.1,50.1,29.96,NE,36,0.0,0.0,93,0.00,,,0.00,Wunderground PWS Mod,2013-09-26 10:29:00,
2013-09-26 06:35:00,52.2,50.2,29.96,NE,36,0.0,0.0,93,0.00,,,0.00,Wunderground PWS Mod,2013-09-26 10:35:00,
2013-09-26 06:40:00,52.2,50.2,29.96,NE,36,0.0,0.0,93,0.00,,,0.00,Wunderground PWS Mod,2013-09-26 10:40:00,
2013-09-26 06:45:00,52.2,50.2,29.96,NE,36,0.0,0.0,93,0.00,,,0.00,Wunderground PWS Mod,2013-09-26 10:45:00,
2013-09-26 06:51:00,52.2,50.2,29.96,NE,36,0.0,0.0,93,0.00,,,0.00,Wunderground PWS Mod,2013-09-26 10:51:00,
2013-09-26 06:56:00,52.3,50.3,29.97,NE,36,0.0,0.0,93,0.00,,,0.00,Wunderground PWS Mod,2013-09-26 10:56:00,
2013-09-26 07:01:00,52.3,50.3,29.97,NE,36,0.0,0.0,93,0.00,,,0.00,Wunderground PWS Mod,2013-09-26 11:01:00,
2013-09-26 07:07:00,52.5,50.5,29.97,NNE,21,0.0,0.0,93,0.00,,,0.00,Wunderground PWS Mod,2013-09-26 11:07:00,
2013-09-26 07:12:00,52.6,50.6,29.98,NNE,20,0.0,0.0,93,0.00,,,0.00,Wunderground PWS Mod,2013-09-26 11:12:00,
2013-09-26 07:17:00,52.6,50.3,29.97,NNE,20,0.0,0.0,92,0.00,,,0.00,Wunderground PWS Mod,2013-09-26 11:17:00,
2013-09-26 07:22:00,52.7,50.4,29.98,NNE,20,0.0,0.0,92,0.00,,,0.00,Wunderground PWS Mod,2013-09-26 11:22:00,
2013-09-26 07:27:00,52.8,50.2,29.98,NNE,20,0.0,0.0,91,0.00,,,0.00,Wunderground PWS Mod,2013-09-26 11:27:00,
2013-09-26 07:33:00,53.0,50.4,29.98,NNE,20,0.0,0.0,91,0.00,,,0.00,Wunderground PWS Mod,2013-09-26 11:33:00,
2013-09-26 07:38:00,53.2,50.6,29.98,NNE,20,0.0,0.0,91,0.00,,,0.00,Wunderground PWS Mod,2013-09-26 11:38:00,
2013-09-26 07:43:00,53.3,50.7,29.98,NNE,20,0.0,0.0,91,0.00,,,0.00,Wunderground PWS Mod,2013-09-26 11:43:00,
2013-09-26 07:48:00,53.5,50.9,29.98,NNE,20,0.0,0.0,91,0.00,,,0.00,Wunderground PWS Mod,2013-09-26 11:48:00,
2013-09-26 07:54:00,53.6,50.7,29.98,NNE,20,0.0,0.0,90,0.00,,,0.00,Wunderground PWS Mod,2013-09-26 11:54:00,
2013-09-26 08:00:00,53.7,50.8,29.98,NNE,20,0.0,0.0,90,0.00,,,0.00,Wunderground PWS Mod,2013-09-26 12:00:00,
2013-09-26 08:05:00,53.8,50.9,29.98,NNE,20,0.0,0.0,90,0.00,,,0.00,Wunderground PWS Mod,2013-09-26 12:05:00,
2013-09-26 08:11:00,53.9,51.3,29.98,NNE,20,0.0,0.0,91,0.00,,,0.00,Wunderground PWS Mod,2013-09-26 12:11:00,
2013-09-26 08:14:00,53.8,51.2,29.98,N/A,-737280,0.0,0.0,91,0.00,,,0.00,Wunderground PWS Mod,2013-09-26 12:14:00,
2013-09-26 08:16:00,54.0,51.4,29.98,NNE,20,0.0,0.0,91,0.00,,,0.00,Wunderground PWS Mod,2013-09-26 12:16:00,
2013-09-26 08:22:00,54.0,51.4,29.99,NNE,20,0.0,0.0,91,0.00,,,0.00,Wunderground PWS Mod,2013-09-26 12:22:00,
2013-09-26 08:28:00,54.1,51.5,29.99,NNE,20,0.0,0.0,91,0.00,,,0.00,Wunderground PWS Mod,2013-09-26 12:28:00,
2013-09-26 08:33:00,54.2,51.6,29.99,NNE,20,0.0,0.0,91,0.00,,,0.00,Wunderground PWS Mod,2013-09-26 12:33:00,
2013-09-26 08:38:00,54.3,51.7,29.99,NNE,20,0.0,0.0,91,0.00,,,0.00,Wunderground PWS Mod,2013-09-26 12:38:00,
2013-09-26 08:43:00,54.4,51.8,29.99,NNE,20,0.0,0.0,91,0.00,,,0.00,Wunderground PWS Mod,2013-09-26 12:43:00,
2013-09-26 08:49:00,54.6,51.7,29.99,North,360,0.0,2.0,90,0.00,,,0.00,Wunderground PWS Mod,2013-09-26 12:49:00,
2013-09-26 08:54:00,54.8,51.6,29.99,North,355,0.0,0.0,89,0.00,,,0.00,Wunderground PWS Mod,2013-09-26 12:54:00,
2013-09-26 09:00:00,55.0,51.5,29.99,North,5,1.0,1.0,88,0.00,,,0.00,Wunderground PWS Mod,2013-09-26 13:00:00,
2013-09-26 09:05:00,55.3,52.4,30.00,North,5,0.0,0.0,90,0.00,,,0.00,Wunderground PWS Mod,2013-09-26 13:05:00,
2013-09-26 09:10:00,55.6,52.4,30.00,North,5,0.0,0.0,89,0.00,,,0.00,Wunderground PWS Mod,2013-09-26 13:10:00,
2013-09-26 09:16:00,55.9,52.4,30.00,NNW,339,0.0,0.0,88,0.00,,,0.00,Wunderground PWS Mod,2013-09-26 13:16:00,
2013-09-26 09:21:00,56.2,52.7,30.00,NNW,339,0.0,0.0,88,0.00,,,0.00,Wunderground PWS Mod,2013-09-26 13:21:00,
2013-09-26 09:26:00,56.4,52.3,30.00,NNW,339,0.0,0.0,86,0.00,,,0.00,Wunderground PWS Mod,2013-09-26 13:26:00,
2013-09-26 09:31:00,56.6,52.1,30.00,NNW,340,0.0,0.0,85,0.00,,,0.00,Wunderground PWS Mod,2013-09-26 13:31:00,
2013-09-26 09:37:00,56.9,52.4,30.00,NNW,340,0.0,0.0,85,0.00,,,0.00,Wunderground PWS Mod,2013-09-26 13:37:00,
2013-09-26 09:42:00,57.1,52.6,30.00,NNW,340,0.0,0.0,85,0.00,,,0.00,Wunderground PWS Mod,2013-09-26 13:42:00,
2013-09-26 09:48:00,57.2,52.7,30.00,NNE,15,0.0,0.0,85,0.00,,,0.00,Wunderground PWS Mod,2013-09-26 13:48:00,
2013-09-26 09:53:00,57.5,52.7,30.00,NNE,15,0.0,0.0,84,0.00,,,0.00,Wunderground PWS Mod,2013-09-26 13:53:00,
2013-09-26 09:59:00,57.8,53.3,30.01,North,355,0.0,2.0,85,0.00,,,0.00,Wunderground PWS Mod,2013-09-26 13:59:00,
2013-09-26 10:04:00,58.1,53.0,30.01,North,355,0.0,0.0,83,0.00,,,0.00,Wunderground PWS Mod,2013-09-26 14:04:00,
2013-09-26 10:10:00,58.2,52.4,30.01,North,355,0.0,0.0,81,0.00,,,0.00,Wunderground PWS Mod,2013-09-26 14:10:00,
2013-09-26 10:15:00,58.4,52.9,30.01,North,355,0.0,0.0,82,0.00,,,0.00,Wunderground PWS Mod,2013-09-26 14:15:00,
2013-09-26 10:21:00,58.8,53.0,30.01,North,355,0.0,0.0,81,0.00,,,0.00,Wunderground PWS Mod,2013-09-26 14:21:00,
2013-09-26 10:26:00,59.1,53.6,30.01,North,10,0.0,0.0,82,0.00,,,0.00,Wunderground PWS Mod,2013-09-26 14:26:00,
2013-09-26 10:31:00,59.4,53.6,30.01,North,355,0.0,0.0,81,0.00,,,0.00,Wunderground PWS Mod,2013-09-26 14:31:00,
2013-09-26 10:36:00,59.5,53.7,30.01,NNW,346,0.0,0.0,81,0.00,,,0.00,Wunderground PWS Mod,2013-09-26 14:36:00,
2013-09-26 10:41:00,59.8,54.0,30.01,NNW,346,0.0,0.0,81,0.00,,,0.00,Wunderground PWS Mod,2013-09-26 14:41:00,
2013-09-26 10:47:00,59.9,53.0,30.01,North,355,0.0,0.0,78,0.00,,,0.00,Wunderground PWS Mod,2013-09-26 14:47:00,
2013-09-26 10:52:00,59.9,53.0,30.01,NNW,331,0.0,0.0,78,0.00,,,0.00,Wunderground PWS Mod,2013-09-26 14:52:00,
2013-09-26 10:57:00,60.2,53.3,30.01,WNW,286,0.0,0.0,78,0.00,,,0.00,Wunderground PWS Mod,2013-09-26 14:57:00,
2013-09-26 11:03:00,60.3,52.7,30.01,NNW,341,0.0,0.0,76,0.00,,,0.00,Wunderground PWS Mod,2013-09-26 15:03:00,
2013-09-26 11:09:00,60.3,52.3,30.01,NNW,336,0.0,0.0,75,0.00,,,0.00,Wunderground PWS Mod,2013-09-26 15:09:00,
2013-09-26 11:14:00,60.4,52.4,30.01,NE,38,0.0,0.0,75,0.00,,,0.00,Wunderground PWS Mod,2013-09-26 15:14:00,
2013-09-26 11:20:00,60.4,52.4,30.01,SSW,196,0.0,0.0,75,0.00,,,0.00,Wunderground PWS Mod,2013-09-26 15:20:00,
2013-09-26 11:26:00,60.7,52.4,30.01,North,5,1.0,1.0,74,0.00,,,0.00,Wunderground PWS Mod,2013-09-26 15:26:00,
2013-09-26 11:31:00,60.7,51.6,30.01,NNW,346,1.0,2.0,72,0.00,,,0.00,Wunderground PWS Mod,2013-09-26 15:31:00,
2013-09-26 11:36:00,60.2,51.5,30.01,North,360,1.0,1.0,73,0.00,,,0.00,Wunderground PWS Mod,2013-09-26 15:36:00,
2013-09-26 11:42:00,60.2,51.9,30.01,North,350,1.0,1.0,74,0.00,,,0.00,Wunderground PWS Mod,2013-09-26 15:42:00,
2013-09-26 11:47:00,60.5,53.3,30.01,North,350,0.0,0.0,77,0.00,,,0.00,Wunderground PWS Mod,2013-09-26 15:47:00,
2013-09-26 11:52:00,60.9,52.6,30.01,NNW,343,0.0,1.0,74,0.00,,,0.00,Wunderground PWS Mod,2013-09-26 15:52:00,
2013-09-26 11:57:00,61.4,53.4,30.01,NNW,346,1.0,1.0,75,0.00,,,0.00,Wunderground PWS Mod,2013-09-26 15:57:00,
2013-09-26 12:03:00,61.6,52.9,30.01,North,360,0.0,0.0,73,0.00,,,0.00,Wunderground PWS Mod,2013-09-26 16:03:00,
2013-09-26 12:08:00,61.6,53.2,30.01,North,360,0.0,6.0,74,0.00,,,0.00,Wunderground PWS Mod,2013-09-26 16:08:00,
2013-09-26 12:14:00,61.3,52.2,30.01,NNE,22,1.0,6.0,72,0.00,,,0.00,Wunderground PWS Mod,2013-09-26 16:14:00,
2013-09-26 12:20:00,61.0,52.7,30.01,NNE,22,1.0,6.0,74,0.00,,,0.00,Wunderground PWS Mod,2013-09-26 16:20:00,
2013-09-26 12:25:00,61.1,52.7,30.01,North,360,0.0,6.0,74,0.00,,,0.00,Wunderground PWS Mod,2013-09-26 16:25:00,
2013-09-26 12:30:00,61.1,52.4,30.01,North,360,0.0,6.0,73,0.00,,,0.00,Wunderground PWS Mod,2013-09-26 16:30:00,
2013-09-26 12:36:00,61.2,52.1,30.01,NW,317,0.0,6.0,72,0.00,,,0.00,Wunderground PWS Mod,2013-09-26 16:36:00,
2013-09-26 12:41:00,61.3,51.4,30.01,NNW,344,0.0,6.0,70,0.00,,,0.00,Wunderground PWS Mod,2013-09-26 16:41:00,
2013-09-26 12:47:00,61.2,52.5,30.01,NNE,13,0.0,6.0,73,0.00,,,0.00,Wunderground PWS Mod,2013-09-26 16:47:00,
2013-09-26 12:52:00,60.9,51.8,30.01,NNE,30,0.0,6.0,72,0.00,,,0.00,Wunderground PWS Mod,2013-09-26 16:52:00,
2013-09-26 12:58:00,60.8,52.1,30.01,NNW,348,1.0,6.0,73,0.00,,,0.00,Wunderground PWS Mod,2013-09-26 16:58:00,
2013-09-26 13:03:00,60.8,52.8,30.00,NE,53,1.0,6.0,75,0.00,,,0.00,Wunderground PWS Mod,2013-09-26 17:03:00,
2013-09-26 13:08:00,60.7,52.4,30.00,NNW,347,1.0,6.0,74,0.00,,,0.00,Wunderground PWS Mod,2013-09-26 17:08:00,
2013-09-26 13:14:00,60.7,52.0,30.00,NNW,346,1.0,6.0,73,0.00,,,0.00,Wunderground PWS Mod,2013-09-26 17:14:00,
2013-09-26 13:20:00,61.2,53.2,30.00,NNE,19,0.0,6.0,75,0.00,,,0.00,Wunderground PWS Mod,2013-09-26 17:20:00,
2013-09-26 13:25:00,61.3,52.6,30.00,North,5,1.0,6.0,73,0.00,,,0.00,Wunderground PWS Mod,2013-09-26 17:25:00,
2013-09-26 13:31:00,61.6,53.6,30.00,NE,49,1.0,6.0,75,0.00,,,0.00,Wunderground PWS Mod,2013-09-26 17:31:00,
2013-09-26 13:36:00,61.6,53.6,30.00,WNW,294,0.0,6.0,75,0.00,,,0.00,Wunderground PWS Mod,2013-09-26 17:36:00,
2013-09-26 13:41:00,61.7,53.3,29.99,WSW,254,0.0,6.0,74,0.00,,,0.00,Wunderground PWS Mod,2013-09-26 17:41:00,
2013-09-26 13:47:00,61.7,53.0,30.00,NNE,25,1.0,6.0,73,0.00,,,0.00,Wunderground PWS Mod,2013-09-26 17:47:00,
2013-09-26 13:53:00,61.6,52.9,30.00,North,355,1.0,6.0,73,0.00,,,0.00,Wunderground PWS Mod,2013-09-26 17:53:00,
2013-09-26 13:58:00,61.5,52.8,29.99,North,5,0.0,6.0,73,0.00,,,0.00,Wunderground PWS Mod,2013-09-26 17:58:00,
2013-09-26 14:03:00,61.6,51.7,29.99,NNW,346,0.0,6.0,70,0.00,,,0.00,Wunderground PWS Mod,2013-09-26 18:03:00,
2013-09-26 14:09:00,61.8,53.1,29.99,NE,44,0.0,6.0,73,0.00,,,0.00,Wunderground PWS Mod,2013-09-26 18:09:00,
2013-09-26 14:14:00,61.9,52.4,29.99,NE,38,0.0,6.0,71,0.00,,,0.00,Wunderground PWS Mod,2013-09-26 18:14:00,
2013-09-26 14:20:00,62.0,51.7,29.99,NNE,33,0.0,6.0,69,0.00,,,0.00,Wunderground PWS Mod,2013-09-26 18:20:00,
2013-09-26 14:25:00,62.0,53.2,29.99,North,9,0.0,6.0,73,0.00,,,0.00,Wunderground PWS Mod,2013-09-26 18:25:00,
2013-09-26 14:30:00,61.4,51.5,29.99,NNE,25,1.0,6.0,70,0.00,,,0.00,Wunderground PWS Mod,2013-09-26 18:30:00,
2013-09-26 14:35:00,61.3,51.8,29.99,North,360,1.0,6.0,71,0.00,,,0.00,Wunderground PWS Mod,2013-09-26 18:35:00,
2013-09-26 14:41:00,61.3,52.9,29.99,North,360,0.0,6.0,74,0.00,,,0.00,Wunderground PWS Mod,2013-09-26 18:41:00,
2013-09-26 14:46:00,61.4,52.3,29.99,WSW,247,0.0,6.0,72,0.00,,,0.00,Wunderground PWS Mod,2013-09-26 18:46:00,
2013-09-26 14:51:00,61.8,50.3,29.99,NNE,17,1.0,6.0,66,0.00,,,0.00,Wunderground PWS Mod,2013-09-26 18:51:00,
2013-09-26 14:56:00,62.2,51.1,29.99,North,355,1.0,6.0,67,0.00,,,0.00,Wunderground PWS Mod,2013-09-26 18:56:00,
2013-09-26 15:02:00,62.5,51.4,29.99,NNE,13,0.0,6.0,67,0.00,,,0.00,Wunderground PWS Mod,2013-09-26 19:02:00,
2013-09-26 15:07:00,62.3,51.2,29.99,North,355,1.0,6.0,67,0.00,,,0.00,Wunderground PWS Mod,2013-09-26 19:07:00,
2013-09-26 15:12:00,62.5,52.2,29.99,North,10,1.0,6.0,69,0.00,,,0.00,Wunderground PWS Mod,2013-09-26 19:12:00,
2013-09-26 15:18:00,62.7,51.2,29.99,NNW,348,0.0,6.0,66,0.00,,,0.00,Wunderground PWS Mod,2013-09-26 19:18:00,
2013-09-26 15:23:00,62.7,52.0,29.99,NNW,348,0.0,6.0,68,0.00,,,0.00,Wunderground PWS Mod,2013-09-26 19:23:00,
2013-09-26 15:29:00,62.6,51.1,29.99,North,360,0.0,6.0,66,0.00,,,0.00,Wunderground PWS Mod,2013-09-26 19:29:00,
2013-09-26 15:34:00,62.3,52.4,29.99,NW,325,0.0,6.0,70,0.00,,,0.00,Wunderground PWS Mod,2013-09-26 19:34:00,
2013-09-26 15:40:00,61.9,52.8,29.99,NW,325,0.0,6.0,72,0.00,,,0.00,Wunderground PWS Mod,2013-09-26 19:40:00,
2013-09-26 15:45:00,61.7,52.2,29.99,NW,323,0.0,6.0,71,0.00,,,0.00,Wunderground PWS Mod,2013-09-26 19:45:00,
2013-09-26 15:50:00,61.7,52.2,29.99,NNW,336,0.0,6.0,71,0.00,,,0.00,Wunderground PWS Mod,2013-09-26 19:50:00,
2013-09-26 15:55:00,61.8,51.5,29.99,WNW,285,0.0,6.0,69,0.00,,,0.00,Wunderground PWS Mod,2013-09-26 19:55:00,
2013-09-26 16:01:00,62.4,52.5,29.99,East,84,1.0,6.0,70,0.00,,,0.00,Wunderground PWS Mod,2013-09-26 20:01:00,
2013-09-26 16:07:00,62.6,52.7,29.99,East,85,0.0,4.0,70,0.00,,,0.00,Wunderground PWS Mod,2013-09-26 20:07:00,
2013-09-26 16:12:00,62.5,53.0,29.99,East,85,0.0,4.0,71,0.00,,,0.00,Wunderground PWS Mod,2013-09-26 20:12:00,
2013-09-26 16:14:00,62.5,52.6,29.99,North,0,0.0,4.0,70,0.00,,,0.00,Wunderground PWS Mod,2013-09-26 20:14:00,
2013-09-26 16:17:00,62.3,53.2,29.99,ESE,121,0.0,4.0,72,0.00,,,0.00,Wunderground PWS Mod,2013-09-26 20:17:00,
2013-09-26 16:23:00,62.1,51.8,29.99,ESE,109,0.0,4.0,69,0.00,,,0.00,Wunderground PWS Mod,2013-09-26 20:23:00,
2013-09-26 16:28:00,62.2,51.1,29.99,NE,34,0.0,4.0,67,0.00,,,0.00,Wunderground PWS Mod,2013-09-26 20:28:00,
2013-09-26 16:33:00,62.4,50.9,29.99,North,355,1.0,4.0,66,0.00,,,0.00,Wunderground PWS Mod,2013-09-26 20:33:00,
2013-09-26 16:38:00,62.6,51.5,29.99,North,5,1.0,4.0,67,0.00,,,0.00,Wunderground PWS Mod,2013-09-26 20:38:00,
2013-09-26 16:43:00,62.6,50.7,29.99,North,10,1.0,4.0,65,0.00,,,0.00,Wunderground PWS Mod,2013-09-26 20:43:00,
2013-09-26 16:49:00,62.3,51.6,29.99,North,10,1.0,4.0,68,0.00,,,0.00,Wunderground PWS Mod,2013-09-26 20:49:00,
2013-09-26 16:54:00,61.8,51.1,29.99,North,10,0.0,4.0,68,0.00,,,0.00,Wunderground PWS Mod,2013-09-26 20:54:00,
2013-09-26 17:00:00,61.5,51.6,30.00,North,10,0.0,4.0,70,0.00,,,0.00,Wunderground PWS Mod,2013-09-26 21:00:00,
2013-09-26 17:05:00,61.3,51.0,30.00,North,10,0.0,4.0,69,0.00,,,0.00,Wunderground PWS Mod,2013-09-26 21:05:00,
2013-09-26 17:11:00,61.3,51.4,30.00,North,10,0.0,4.0,70,0.00,,,0.00,Wunderground PWS Mod,2013-09-26 21:11:00,
2013-09-26 17:16:00,61.3,51.8,30.00,North,5,0.0,4.0,71,0.00,,,0.00,Wunderground PWS Mod,2013-09-26 21:16:00,
2013-09-26 17:21:00,61.3,52.6,30.00,NNW,348,0.0,4.0,73,0.00,,,0.00,Wunderground PWS Mod,2013-09-26 21:21:00,
2013-09-26 17:27:00,61.1,52.0,30.00,NNW,348,0.0,4.0,72,0.00,,,0.00,Wunderground PWS Mod,2013-09-26 21:27:00,
2013-09-26 17:33:00,60.9,52.6,30.00,NNW,348,0.0,4.0,74,0.00,,,0.00,Wunderground PWS Mod,2013-09-26 21:33:00,
2013-09-26 17:38:00,60.7,52.4,30.00,NNW,348,0.0,4.0,74,0.00,,,0.00,Wunderground PWS Mod,2013-09-26 21:38:00,
2013-09-26 17:45:00,60.4,51.7,30.00,NNW,348,0.0,4.0,73,0.00,,,0.00,Wunderground PWS Mod,2013-09-26 21:45:00,
2013-09-26 17:50:00,60.2,51.5,30.01,NNW,348,0.0,4.0,73,0.00,,,0.00,Wunderground PWS Mod,2013-09-26 21:50:00,
2013-09-26 17:56:00,60.1,52.1,30.01,NNW,348,0.0,4.0,75,0.00,,,0.00,Wunderground PWS Mod,2013-09-26 21:56:00,
2013-09-26 18:01:00,59.9,52.7,30.01,NNW,348,0.0,4.0,77,0.00,,,0.00,Wunderground PWS Mod,2013-09-26 22:01:00,
2013-09-26 18:07:00,59.7,52.1,30.01,NNW,348,0.0,4.0,76,0.00,,,0.00,Wunderground PWS Mod,2013-09-26 22:07:00,
2013-09-26 18:13:00,59.5,51.9,30.01,NNW,348,0.0,4.0,76,0.00,,,0.00,Wunderground PWS Mod,2013-09-26 22:13:00,
2013-09-26 18:18:00,59.3,51.7,30.01,NNW,348,0.0,4.0,76,0.00,,,0.00,Wunderground PWS Mod,2013-09-26 22:18:00,
2013-09-26 18:23:00,59.1,51.5,30.02,NNW,348,0.0,4.0,76,0.00,,,0.00,Wunderground PWS Mod,2013-09-26 22:23:00,
2013-09-26 18:28:00,58.9,51.7,30.02,NNW,348,0.0,4.0,77,0.00,,,0.00,Wunderground PWS Mod,2013-09-26 22:28:00,
2013-09-26 18:34:00,58.6,51.8,30.02,NNW,348,0.0,4.0,78,0.00,,,0.00,Wunderground PWS Mod,2013-09-26 22:34:00,
2013-09-26 18:40:00,58.4,51.9,30.02,NNW,348,0.0,4.0,79,0.00,,,0.00,Wunderground PWS Mod,2013-09-26 22:40:00,
2013-09-26 18:46:00,58.1,52.0,30.02,NNW,348,0.0,4.0,80,0.00,,,0.00,Wunderground PWS Mod,2013-09-26 22:46:00,
2013-09-26 18:51:00,57.9,51.8,30.02,NNW,348,0.0,4.0,80,0.00,,,0.00,Wunderground PWS Mod,2013-09-26 22:51:00,
2013-09-26 18:57:00,57.6,51.8,30.02,NNW,348,0.0,4.0,81,0.00,,,0.00,Wunderground PWS Mod,2013-09-26 22:57:00,
2013-09-26 19:03:00,57.4,51.9,30.02,NNW,348,0.0,4.0,82,0.00,,,0.00,Wunderground PWS Mod,2013-09-26 23:03:00,
2013-09-26 19:08:00,57.2,52.1,30.03,NNW,348,0.0,4.0,83,0.00,,,0.00,Wunderground PWS Mod,2013-09-26 23:08:00,
2013-09-26 19:13:00,57.0,51.9,30.03,NNW,348,0.0,4.0,83,0.00,,,0.00,Wunderground PWS Mod,2013-09-26 23:13:00,
2013-09-26 19:19:00,56.8,52.0,30.03,NNW,348,0.0,4.0,84,0.00,,,0.00,Wunderground PWS Mod,2013-09-26 23:19:00,
2013-09-26 19:24:00,56.6,52.1,30.03,NNW,348,0.0,4.0,85,0.00,,,0.00,Wunderground PWS Mod,2013-09-26 23:24:00,
2013-09-26 19:30:00,56.4,51.9,30.03,NNW,348,0.0,4.0,85,0.00,,,0.00,Wunderground PWS Mod,2013-09-26 23:30:00,
2013-09-26 19:35:00,56.3,52.2,30.03,NNW,348,0.0,4.0,86,0.00,,,0.00,Wunderground PWS Mod,2013-09-26 23:35:00,
2013-09-26 19:41:00,56.2,52.1,30.04,NNW,348,0.0,4.0,86,0.00,,,0.00,Wunderground PWS Mod,2013-09-26 23:41:00,
2013-09-26 19:46:00,56.2,52.4,30.04,NNW,348,0.0,4.0,87,0.00,,,0.00,Wunderground PWS Mod,2013-09-26 23:46:00,
2013-09-26 19:51:00,56.2,52.4,30.04,NNW,348,0.0,4.0,87,0.00,,,0.00,Wunderground PWS Mod,2013-09-26 23:51:00,
2013-09-26 19:56:00,56.1,52.3,30.04,NNW,348,0.0,4.0,87,0.00,,,0.00,Wunderground PWS Mod,2013-09-26 23:56:00,
2013-09-26 20:02:00,56.1,52.3,30.04,NNW,348,0.0,4.0,87,0.00,,,0.00,Wunderground PWS Mod,2013-09-27 00:02:00,
2013-09-26 20:08:00,56.1,52.3,30.04,N/A,-737280,0.0,0.0,87,0.00,,,0.00,Wunderground PWS Mod,2013-09-27 00:08:00,
2013-09-26 20:10:00,56.0,52.2,30.04,NNW,348,0.0,0.0,87,0.00,,,0.00,Wunderground PWS Mod,2013-09-27 00:10:00,
2013-09-26 20:15:00,56.0,52.2,30.05,NNW,348,0.0,0.0,87,0.00,,,0.00,Wunderground PWS Mod,2013-09-27 00:15:00,
2013-09-26 20:21:00,55.9,52.1,30.05,NNW,348,0.0,0.0,87,0.00,,,0.00,Wunderground PWS Mod,2013-09-27 00:21:00,
2013-09-26 20:26:00,55.9,52.1,30.05,NNW,348,0.0,0.0,87,0.00,,,0.00,Wunderground PWS Mod,2013-09-27 00:26:00,
2013-09-26 20:32:00,55.8,51.7,30.05,NNW,348,0.0,0.0,86,0.00,,,0.00,Wunderground PWS Mod,2013-09-27 00:32:00,
2013-09-26 20:37:00,55.7,51.6,30.05,NNW,348,0.0,0.0,86,0.00,,,0.00,Wunderground PWS Mod,2013-09-27 00:37:00,
2013-09-26 20:42:00,55.7,51.6,30.05,NNW,348,0.0,0.0,86,0.00,,,0.00,Wunderground PWS Mod,2013-09-27 00:42:00,
2013-09-26 20:47:00,55.6,51.5,30.05,NNW,348,0.0,0.0,86,0.00,,,0.00,Wunderground PWS Mod,2013-09-27 00:47:00,
2013-09-26 20:53:00,55.5,51.7,30.05,NNW,348,0.0,0.0,87,0.00,,,0.00,Wunderground PWS Mod,2013-09-27 00:53:00,
2013-09-26 20:58:00,55.4,51.6,30.05,NNW,348,0.0,0.0,87,0.00,,,0.00,Wunderground PWS Mod,2013-09-27 00:58:00,
2013-09-26 21:03:00,55.2,51.4,30.06,NNW,348,0.0,0.0,87,0.00,,,0.00,Wunderground PWS Mod,2013-09-27 01:03:00,
2013-09-26 21:09:00,54.9,51.4,30.05,NNW,348,0.0,0.0,88,0.00,,,0.00,Wunderground PWS Mod,2013-09-27 01:09:00,
2013-09-26 21:14:00,54.6,51.4,30.06,NNW,348,0.0,0.0,89,0.00,,,0.00,Wunderground PWS Mod,2013-09-27 01:14:00,
2013-09-26 21:20:00,54.6,51.4,30.06,NNW,348,0.0,0.0,89,0.00,,,0.00,Wunderground PWS Mod,2013-09-27 01:20:00,
2013-09-26 21:25:00,54.5,51.3,30.06,NNW,348,0.0,0.0,89,0.00,,,0.00,Wunderground PWS Mod,2013-09-27 01:25:00,
2013-09-26 21:31:00,54.6,51.4,30.06,NNW,348,0.0,0.0,89,0.00,,,0.00,Wunderground PWS Mod,2013-09-27 01:31:00,
2013-09-26 21:36:00,54.7,51.5,30.06,NNW,348,0.0,0.0,89,0.00,,,0.00,Wunderground PWS Mod,2013-09-27 01:36:00,
2013-09-26 21:41:00,54.8,51.3,30.06,NNW,348,0.0,0.0,88,0.00,,,0.00,Wunderground PWS Mod,2013-09-27 01:41:00,
2013-09-26 21:46:00,54.8,51.3,30.07,NNW,348,0.0,0.0,88,0.00,,,0.00,Wunderground PWS Mod,2013-09-27 01:46:00,
2013-09-26 21:52:00,54.8,51.3,30.07,NNW,348,0.0,0.0,88,0.00,,,0.00,Wunderground PWS Mod,2013-09-27 01:52:00,
2013-09-26 21:57:00,54.7,51.5,30.07,NNW,348,0.0,0.0,89,0.00,,,0.00,Wunderground PWS Mod,2013-09-27 01:57:00,
2013-09-26 22:02:00,54.6,51.4,30.07,NNW,348,0.0,0.0,89,0.00,,,0.00,Wunderground PWS Mod,2013-09-27 02:02:00,
2013-09-26 22:07:00,54.4,50.9,30.07,NNW,348,0.0,0.0,88,0.00,,,0.00,Wunderground PWS Mod,2013-09-27 02:07:00,
2013-09-26 22:13:00,54.3,51.1,30.07,NNW,348,0.0,0.0,89,0.00,,,0.00,Wunderground PWS Mod,2013-09-27 02:13:00,
2013-09-26 22:18:00,54.2,51.3,30.07,NNW,348,0.0,0.0,90,0.00,,,0.00,Wunderground PWS Mod,2013-09-27 02:18:00,
2013-09-26 22:23:00,54.0,51.1,30.07,NNW,348,0.0,0.0,90,0.00,,,0.00,Wunderground PWS Mod,2013-09-27 02:23:00,
2013-09-26 22:28:00,53.7,51.1,30.07,NNW,348,0.0,0.0,91,0.00,,,0.00,Wunderground PWS Mod,2013-09-27 02:28:00,
2013-09-26 22:34:00,53.4,50.8,30.07,NNW,348,0.0,0.0,91,0.00,,,0.00,Wunderground PWS Mod,2013-09-27 02:34:00,
2013-09-26 22:40:00,53.1,50.5,30.07,NNW,348,0.0,0.0,91,0.00,,,0.00,Wunderground PWS Mod,2013-09-27 02:40:00,
2013-09-26 22:45:00,52.6,50.0,30.07,NNW,348,0.0,0.0,91,0.00,,,0.00,Wunderground PWS Mod,2013-09-27 02:45:00,
2013-09-26 22:51:00,52.2,49.9,30.07,NNW,348,0.0,0.0,92,0.00,,,0.00,Wunderground PWS Mod,2013-09-27 02:51:00,
2013-09-26 22:57:00,52.0,50.0,30.07,NNW,348,0.0,0.0,93,0.00,,,0.00,Wunderground PWS Mod,2013-09-27 02:57:00,
2013-09-26 23:02:00,51.9,49.9,30.07,NNW,348,0.0,0.0,93,0.00,,,0.00,Wunderground PWS Mod,2013-09-27 03:02:00,
2013-09-26 23:07:00,51.7,50.0,30.07,NNW,348,0.0,0.0,94,0.00,,,0.00,Wunderground PWS Mod,2013-09-27 03:07:00,
2013-09-26 23:13:00,51.6,49.9,30.08,NNW,348,0.0,0.0,94,0.00,,,0.00,Wunderground PWS Mod,2013-09-27 03:13:00,
2013-09-26 23:18:00,51.5,49.8,30.08,NNW,348,0.0,0.0,94,0.00,,,0.00,Wunderground PWS Mod,2013-09-27 03:18:00,
2013-09-26 23:23:00,51.4,50.0,30.08,NNW,348,0.0,0.0,95,0.00,,,0.00,Wunderground PWS Mod,2013-09-27 03:23:00,
2013-09-26 23:28:00,51.4,50.0,30.08,NNW,348,0.0,0.0,95,0.00,,,0.00,Wunderground PWS Mod,2013-09-27 03:28:00,
2013-09-26 23:34:00,51.1,49.4,30.08,NNW,348,0.0,0.0,94,0.00,,,0.00,Wunderground PWS Mod,2013-09-27 03:34:00,
2013-09-26 23:40:00,50.8,49.4,30.08,NNW,348,0.0,0.0,95,0.00,,,0.00,Wunderground PWS Mod,2013-09-27 03:40:00,
2013-09-26 23:45:00,50.8,49.4,30.08,NNW,348,0.0,0.0,95,0.00,,,0.00,Wunderground PWS Mod,2013-09-27 03:45:00,
2013-09-26 23:51:00,50.9,49.8,30.07,NNW,348,0.0,0.0,96,0.00,,,0.00,Wunderground PWS Mod,2013-09-27 03:51:00,
2013-09-26 23:56:00,50.9,49.8,30.07,NNW,348,0.0,0.0,96,0.00,,,0.00,Wunderground PWS Mod,2013-09-27 03:56:00,